Time,TemperatureF,DewpointF,PressureIn,WindDirection,WindDirectionDegrees,WindSpeedMPH,WindSpeedGustMPH,Humidity,HourlyPrecipIn,Conditions,Clouds,dailyrainin,SoftwareType,DateUTC
2013-10-20 00:01:00,80.6,76.4,29.95,East,86,0.0,0.0,87,0.00,,,0.00,Wunderground v.1.15,2013-10-20 04:01:00,
2013-10-20 00:02:00,80.6,76.4,29.95,East,86,0.0,0.0,87,0.00,,,0.00,Wunderground v.1.15,2013-10-20 04:02:00,
2013-10-20 00:04:00,80.7,76.5,29.95,East,86,0.0,0.0,87,0.00,,,0.00,Wunderground v.1.15,2013-10-20 04:04:00,
2013-10-20 00:05:00,80.7,76.1,29.95,East,86,0.0,0.0,86,0.00,,,0.00,Wunderground v.1.15,2013-10-20 04:05:00,
2013-10-20 00:07:00,80.8,76.2,29.95,East,87,0.0,0.0,86,0.00,,,0.00,Wunderground v.1.15,2013-10-20 04:07:00,
2013-10-20 00:13:00,80.9,76.3,29.95,East,99,0.0,0.0,86,0.00,,,0.00,Wunderground v.1.15,2013-10-20 04:13:00,
2013-10-20 00:14:00,80.9,76.3,29.95,SSE,165,0.0,0.0,86,0.00,,,0.00,Wunderground v.1.15,2013-10-20 04:14:00,
2013-10-20 00:19:00,80.9,76.3,29.95,South,187,0.0,0.0,86,0.00,,,0.00,Wunderground v.1.15,2013-10-20 04:19:00,
2013-10-20 00:25:00,81.0,76.4,29.95,ESE,123,0.0,1.0,86,0.00,,,0.00,Wunderground v.1.15,2013-10-20 04:25:00,
2013-10-20 00:30:00,81.1,76.5,29.95,East,79,0.0,0.0,86,0.00,,,0.00,Wunderground v.1.15,2013-10-20 04:30:00,
2013-10-20 00:36:00,81.2,76.6,29.95,SSW,193,0.0,0.0,86,0.00,,,0.00,Wunderground v.1.15,2013-10-20 04:36:00,
2013-10-20 00:41:00,81.2,76.6,29.94,South,186,0.0,0.0,86,0.00,,,0.00,Wunderground v.1.15,2013-10-20 04:41:00,
2013-10-20 00:47:00,81.2,76.6,29.94,SSW,193,0.0,0.0,86,0.00,,,0.00,Wunderground v.1.15,2013-10-20 04:47:00,
2013-10-20 00:52:00,81.2,76.6,29.94,South,190,0.0,0.0,86,0.00,,,0.00,Wunderground v.1.15,2013-10-20 04:52:00,
2013-10-20 00:58:00,81.1,76.9,29.94,South,189,0.0,0.0,87,0.00,,,0.00,Wunderground v.1.15,2013-10-20 04:58:00,
2013-10-20 01:03:00,81.1,76.5,29.94,South,183,0.0,0.0,86,0.00,,,0.00,Wunderground v.1.15,2013-10-20 05:03:00,
2013-10-20 01:09:00,81.1,76.5,29.94,South,183,0.0,0.0,86,0.00,,,0.00,Wunderground v.1.15,2013-10-20 05:09:00,
2013-10-20 01:15:00,81.1,76.5,29.94,SW,214,0.0,0.0,86,0.00,,,0.00,Wunderground v.1.15,2013-10-20 05:15:00,
2013-10-20 01:21:00,81.0,76.4,29.94,ESE,118,0.0,0.0,86,0.00,,,0.00,Wunderground v.1.15,2013-10-20 05:21:00,
2013-10-20 01:26:00,81.0,76.8,29.93,SSW,203,0.0,0.0,87,0.00,,,0.00,Wunderground v.1.15,2013-10-20 05:26:00,
2013-10-20 01:32:00,81.1,76.9,29.93,SSW,203,0.0,0.0,87,0.00,,,0.00,Wunderground v.1.15,2013-10-20 05:32:00,
2013-10-20 01:37:00,81.0,76.4,29.93,SSW,200,0.0,0.0,86,0.00,,,0.00,Wunderground v.1.15,2013-10-20 05:37:00,
2013-10-20 01:43:00,81.0,76.8,29.93,SSW,198,0.0,0.0,87,0.00,,,0.00,Wunderground v.1.15,2013-10-20 05:43:00,
2013-10-20 01:48:00,80.9,76.7,29.93,SSW,198,0.0,0.0,87,0.00,,,0.00,Wunderground v.1.15,2013-10-20 05:48:00,
2013-10-20 01:54:00,80.8,76.6,29.93,SSE,158,0.0,0.0,87,0.00,,,0.00,Wunderground v.1.15,2013-10-20 05:54:00,
2013-10-20 01:59:00,80.8,76.2,29.93,ESE,114,0.0,2.0,86,0.00,,,0.00,Wunderground v.1.15,2013-10-20 05:59:00,
2013-10-20 02:04:00,80.8,76.2,29.93,SW,222,1.0,4.0,86,0.00,,,0.00,Wunderground v.1.15,2013-10-20 06:04:00,
2013-10-20 02:09:00,80.3,75.7,29.93,SSW,197,0.0,4.0,86,0.00,,,0.01,Wunderground v.1.15,2013-10-20 06:09:00,
2013-10-20 02:14:00,79.6,75.4,29.92,WSW,249,0.0,3.0,87,0.07,,,0.02,Wunderground v.1.15,2013-10-20 06:14:00,
2013-10-20 02:19:00,79.1,74.9,29.92,South,188,0.0,3.0,87,0.07,,,0.02,Wunderground v.1.15,2013-10-20 06:19:00,
2013-10-20 02:24:00,78.8,75.3,29.92,SSE,152,0.0,0.0,89,0.06,,,0.02,Wunderground v.1.15,2013-10-20 06:24:00,
2013-10-20 02:29:00,78.6,75.1,29.92,SSE,152,0.0,0.0,89,0.04,,,0.02,Wunderground v.1.15,2013-10-20 06:29:00,
2013-10-20 02:34:00,78.5,75.3,29.92,SSE,153,0.0,0.0,90,0.00,,,0.02,Wunderground v.1.15,2013-10-20 06:34:00,
2013-10-20 02:39:00,78.5,75.7,29.92,SSE,152,0.0,0.0,91,0.00,,,0.02,Wunderground v.1.15,2013-10-20 06:39:00,
2013-10-20 02:44:00,78.4,75.6,29.91,SSE,152,0.0,0.0,91,0.00,,,0.02,Wunderground v.1.15,2013-10-20 06:44:00,
2013-10-20 02:49:00,78.3,75.8,29.91,SSE,152,0.0,0.0,92,0.00,,,0.02,Wunderground v.1.15,2013-10-20 06:49:00,
2013-10-20 02:54:00,78.1,75.6,29.91,SSE,153,0.0,0.0,92,0.00,,,0.02,Wunderground v.1.15,2013-10-20 06:54:00,
2013-10-20 02:59:00,77.9,75.4,29.91,SSE,153,0.0,0.0,92,0.00,,,0.02,Wunderground v.1.15,2013-10-20 06:59:00,
2013-10-20 03:04:00,77.7,75.2,29.91,SSE,152,0.0,0.0,92,0.00,,,0.02,Wunderground v.1.15,2013-10-20 07:04:00,
2013-10-20 03:09:00,77.6,75.1,29.90,SSE,152,0.0,0.0,92,0.00,,,0.02,Wunderground v.1.15,2013-10-20 07:09:00,
2013-10-20 03:14:00,77.6,75.4,29.90,SSE,152,0.0,0.0,93,0.00,,,0.02,Wunderground v.1.15,2013-10-20 07:14:00,
2013-10-20 03:19:00,77.8,75.6,29.90,SSE,152,0.0,0.0,93,0.00,,,0.02,Wunderground v.1.15,2013-10-20 07:19:00,
2013-10-20 03:24:00,77.9,75.7,29.90,SSE,153,0.0,0.0,93,0.00,,,0.02,Wunderground v.1.15,2013-10-20 07:24:00,
2013-10-20 03:29:00,77.7,75.5,29.90,SSE,152,0.0,0.0,93,0.00,,,0.02,Wunderground v.1.15,2013-10-20 07:29:00,
2013-10-20 03:34:00,77.9,76.0,29.90,SSE,153,0.0,0.0,94,0.00,,,0.02,Wunderground v.1.15,2013-10-20 07:34:00,
2013-10-20 03:39:00,77.7,75.8,29.90,SSE,152,0.0,0.0,94,0.00,,,0.02,Wunderground v.1.15,2013-10-20 07:39:00,
2013-10-20 03:44:00,77.5,75.6,29.90,SSE,152,0.0,0.0,94,0.00,,,0.02,Wunderground v.1.15,2013-10-20 07:44:00,
2013-10-20 03:49:00,77.4,75.5,29.90,SSE,153,0.0,0.0,94,0.00,,,0.02,Wunderground v.1.15,2013-10-20 07:49:00,
2013-10-20 03:54:00,77.2,75.3,29.90,SSE,153,0.0,0.0,94,0.00,,,0.02,Wunderground v.1.15,2013-10-20 07:54:00,
2013-10-20 03:59:00,77.2,75.3,29.90,SSE,154,0.0,0.0,94,0.00,,,0.02,Wunderground v.1.15,2013-10-20 07:59:00,
2013-10-20 04:04:00,77.1,75.2,29.90,SSE,154,0.0,0.0,94,0.00,,,0.02,Wunderground v.1.15,2013-10-20 08:04:00,
2013-10-20 04:09:00,77.3,75.4,29.89,SSE,153,0.0,0.0,94,0.00,,,0.03,Wunderground v.1.15,2013-10-20 08:09:00,
2013-10-20 04:14:00,77.1,75.2,29.90,SSE,153,0.0,0.0,94,0.00,,,0.03,Wunderground v.1.15,2013-10-20 08:14:00,
2013-10-20 04:19:00,77.1,75.2,29.90,SSE,154,0.0,0.0,94,0.00,,,0.03,Wunderground v.1.15,2013-10-20 08:19:00,
2013-10-20 04:24:00,77.2,75.7,29.90,SSE,154,0.0,0.0,95,0.00,,,0.03,Wunderground v.1.15,2013-10-20 08:24:00,
2013-10-20 04:29:00,77.1,75.6,29.90,SSE,154,0.0,0.0,95,0.00,,,0.03,Wunderground v.1.15,2013-10-20 08:29:00,
2013-10-20 04:34:00,77.0,75.1,29.90,SSE,153,0.0,0.0,94,0.00,,,0.03,Wunderground v.1.15,2013-10-20 08:34:00,
2013-10-20 04:39:00,76.9,75.4,29.90,SSE,153,0.0,0.0,95,0.00,,,0.03,Wunderground v.1.15,2013-10-20 08:39:00,
2013-10-20 04:44:00,76.9,75.4,29.90,SSE,154,0.0,0.0,95,0.00,,,0.03,Wunderground v.1.15,2013-10-20 08:44:00,
2013-10-20 04:49:00,76.8,75.3,29.90,SSE,153,0.0,0.0,95,0.00,,,0.03,Wunderground v.1.15,2013-10-20 08:49:00,
2013-10-20 04:54:00,76.8,75.3,29.90,SSE,152,0.0,0.0,95,0.00,,,0.03,Wunderground v.1.15,2013-10-20 08:54:00,
2013-10-20 04:59:00,76.8,75.3,29.90,SSE,152,0.0,0.0,95,0.00,,,0.03,Wunderground v.1.15,2013-10-20 08:59:00,
2013-10-20 05:04:00,76.8,75.3,29.90,SSE,152,0.0,0.0,95,0.00,,,0.03,Wunderground v.1.15,2013-10-20 09:04:00,
2013-10-20 05:09:00,76.7,75.2,29.91,SSE,153,0.0,0.0,95,0.00,,,0.03,Wunderground v.1.15,2013-10-20 09:09:00,
2013-10-20 05:14:00,76.5,75.0,29.91,SSE,153,0.0,0.0,95,0.00,,,0.03,Wunderground v.1.15,2013-10-20 09:14:00,
2013-10-20 05:19:00,76.4,74.9,29.91,SSE,153,0.0,0.0,95,0.00,,,0.03,Wunderground v.1.15,2013-10-20 09:19:00,
2013-10-20 05:24:00,76.5,75.3,29.91,SSE,152,0.0,0.0,96,0.00,,,0.03,Wunderground v.1.15,2013-10-20 09:24:00,
2013-10-20 05:29:00,76.7,75.5,29.91,SSE,152,0.0,0.0,96,0.00,,,0.03,Wunderground v.1.15,2013-10-20 09:29:00,
2013-10-20 05:34:00,76.7,75.5,29.91,SSE,152,0.0,0.0,96,0.00,,,0.03,Wunderground v.1.15,2013-10-20 09:34:00,
2013-10-20 05:39:00,76.6,75.4,29.91,SSE,152,0.0,0.0,96,0.00,,,0.03,Wunderground v.1.15,2013-10-20 09:39:00,
2013-10-20 05:44:00,76.5,75.3,29.91,SSE,152,0.0,0.0,96,0.00,,,0.03,Wunderground v.1.15,2013-10-20 09:44:00,
2013-10-20 05:49:00,76.6,75.4,29.92,SSE,152,0.0,0.0,96,0.00,,,0.03,Wunderground v.1.15,2013-10-20 09:49:00,
2013-10-20 05:54:00,76.4,75.2,29.92,SSE,152,0.0,0.0,96,0.00,,,0.03,Wunderground v.1.15,2013-10-20 09:54:00,
2013-10-20 05:59:00,76.3,75.1,29.92,SSE,153,0.0,0.0,96,0.00,,,0.03,Wunderground v.1.15,2013-10-20 09:59:00,
2013-10-20 06:04:00,76.5,75.3,29.92,SSE,154,0.0,0.0,96,0.00,,,0.03,Wunderground v.1.15,2013-10-20 10:04:00,
2013-10-20 06:09:00,76.7,75.5,29.92,SSE,153,0.0,0.0,96,0.00,,,0.03,Wunderground v.1.15,2013-10-20 10:09:00,
2013-10-20 06:14:00,76.6,75.4,29.92,SSE,153,0.0,0.0,96,0.00,,,0.03,Wunderground v.1.15,2013-10-20 10:14:00,
2013-10-20 06:19:00,76.5,75.3,29.92,SSE,153,0.0,0.0,96,0.00,,,0.03,Wunderground v.1.15,2013-10-20 10:19:00,
2013-10-20 06:24:00,76.5,75.3,29.92,SSE,154,0.0,0.0,96,0.00,,,0.03,Wunderground v.1.15,2013-10-20 10:24:00,
2013-10-20 06:29:00,76.5,75.3,29.92,SSE,154,0.0,0.0,96,0.00,,,0.03,Wunderground v.1.15,2013-10-20 10:29:00,
2013-10-20 06:34:00,76.4,75.2,29.92,SSE,153,0.0,0.0,96,0.00,,,0.03,Wunderground v.1.15,2013-10-20 10:34:00,
2013-10-20 06:39:00,76.4,75.2,29.92,SSE,154,0.0,0.0,96,0.00,,,0.03,Wunderground v.1.15,2013-10-20 10:39:00,
2013-10-20 06:44:00,76.7,75.8,29.92,SSE,154,0.0,0.0,97,0.00,,,0.03,Wunderground v.1.15,2013-10-20 10:44:00,
2013-10-20 06:49:00,76.8,75.9,29.92,SSE,152,0.0,0.0,97,0.00,,,0.03,Wunderground v.1.15,2013-10-20 10:49:00,
2013-10-20 06:54:00,76.9,75.7,29.92,SSE,152,0.0,0.0,96,0.00,,,0.03,Wunderground v.1.15,2013-10-20 10:54:00,
2013-10-20 06:59:00,76.8,75.6,29.92,SSE,153,0.0,0.0,96,0.00,,,0.03,Wunderground v.1.15,2013-10-20 10:59:00,
2013-10-20 07:04:00,76.8,75.6,29.93,SSE,152,0.0,0.0,96,0.00,,,0.03,Wunderground v.1.15,2013-10-20 11:04:00,
2013-10-20 07:10:00,76.7,75.5,29.93,SSE,153,0.0,0.0,96,0.00,,,0.03,Wunderground v.1.15,2013-10-20 11:10:00,
2013-10-20 07:15:00,76.8,75.6,29.93,SSE,153,0.0,0.0,96,0.00,,,0.03,Wunderground v.1.15,2013-10-20 11:15:00,
2013-10-20 07:20:00,76.8,75.9,29.93,SSE,152,0.0,0.0,97,0.00,,,0.03,Wunderground v.1.15,2013-10-20 11:20:00,
2013-10-20 07:25:00,76.8,75.9,29.93,West,279,0.0,1.0,97,0.00,,,0.03,Wunderground v.1.15,2013-10-20 11:25:00,
2013-10-20 07:30:00,76.9,76.0,29.93,West,280,0.0,1.0,97,0.00,,,0.03,Wunderground v.1.15,2013-10-20 11:30:00,
2013-10-20 07:35:00,77.1,76.2,29.94,West,280,0.0,0.0,97,0.00,,,0.03,Wunderground v.1.15,2013-10-20 11:35:00,
2013-10-20 07:40:00,77.2,76.3,29.94,West,279,0.0,0.0,97,0.00,,,0.03,Wunderground v.1.15,2013-10-20 11:40:00,
2013-10-20 07:45:00,77.2,76.3,29.94,West,280,0.0,0.0,97,0.00,,,0.03,Wunderground v.1.15,2013-10-20 11:45:00,
2013-10-20 07:50:00,77.2,76.3,29.94,West,280,0.0,0.0,97,0.00,,,0.03,Wunderground v.1.15,2013-10-20 11:50:00,
2013-10-20 07:55:00,77.2,76.3,29.94,West,279,0.0,0.0,97,0.00,,,0.03,Wunderground v.1.15,2013-10-20 11:55:00,
2013-10-20 08:00:00,77.2,76.3,29.94,West,279,0.0,0.0,97,0.00,,,0.03,Wunderground v.1.15,2013-10-20 12:00:00,
2013-10-20 08:05:00,77.2,76.3,29.94,West,279,0.0,0.0,97,0.00,,,0.03,Wunderground v.1.15,2013-10-20 12:05:00,
2013-10-20 08:10:00,77.2,76.3,29.94,West,280,0.0,0.0,97,0.00,,,0.03,Wunderground v.1.15,2013-10-20 12:10:00,
2013-10-20 08:15:00,77.2,76.3,29.94,West,280,0.0,0.0,97,0.00,,,0.03,Wunderground v.1.15,2013-10-20 12:15:00,
2013-10-20 08:20:00,77.2,76.3,29.94,West,280,0.0,0.0,97,0.00,,,0.03,Wunderground v.1.15,2013-10-20 12:20:00,
2013-10-20 08:25:00,77.3,76.4,29.94,West,279,0.0,0.0,97,0.00,,,0.03,Wunderground v.1.15,2013-10-20 12:25:00,
2013-10-20 08:30:00,77.5,76.6,29.95,West,279,0.0,0.0,97,0.00,,,0.03,Wunderground v.1.15,2013-10-20 12:30:00,
2013-10-20 08:35:00,77.7,76.8,29.95,West,279,0.0,0.0,97,0.00,,,0.03,Wunderground v.1.15,2013-10-20 12:35:00,
2013-10-20 08:40:00,77.8,76.6,29.95,West,279,0.0,0.0,96,0.00,,,0.03,Wunderground v.1.15,2013-10-20 12:40:00,
2013-10-20 08:45:00,77.7,76.8,29.95,West,280,0.0,0.0,97,0.00,,,0.03,Wunderground v.1.15,2013-10-20 12:45:00,
2013-10-20 08:50:00,77.9,76.7,29.95,West,279,0.0,0.0,96,0.00,,,0.03,Wunderground v.1.15,2013-10-20 12:50:00,
2013-10-20 08:55:00,78.1,76.9,29.95,West,280,0.0,0.0,96,0.00,,,0.03,Wunderground v.1.15,2013-10-20 12:55:00,
2013-10-20 09:00:00,78.6,77.4,29.95,West,276,0.0,0.0,96,0.00,,,0.03,Wunderground v.1.15,2013-10-20 13:00:00,
2013-10-20 09:05:00,79.4,78.2,29.96,West,276,0.0,0.0,96,0.00,,,0.03,Wunderground v.1.15,2013-10-20 13:05:00,
2013-10-20 09:10:00,80.4,79.2,29.96,West,279,0.0,0.0,96,0.00,,,0.03,Wunderground v.1.15,2013-10-20 13:10:00,
2013-10-20 09:15:00,81.2,79.3,29.96,West,279,0.0,0.0,94,0.00,,,0.03,Wunderground v.1.15,2013-10-20 13:15:00,
2013-10-20 09:20:00,81.3,78.8,29.96,WSW,258,0.0,1.0,92,0.00,,,0.03,Wunderground v.1.15,2013-10-20 13:20:00,
2013-10-20 09:25:00,81.4,78.2,29.96,West,260,0.0,1.0,90,0.00,,,0.03,Wunderground v.1.15,2013-10-20 13:25:00,
2013-10-20 09:30:00,81.6,78.0,29.96,SW,236,0.0,0.0,89,0.00,,,0.03,Wunderground v.1.15,2013-10-20 13:30:00,
2013-10-20 09:35:00,82.0,77.7,29.96,SW,232,0.0,2.0,87,0.00,,,0.03,Wunderground v.1.15,2013-10-20 13:35:00,
2013-10-20 09:41:00,82.6,78.0,29.96,SW,217,0.0,1.0,86,0.00,,,0.03,Wunderground v.1.15,2013-10-20 13:41:00,
2013-10-20 09:46:00,83.2,77.9,29.96,South,190,0.0,4.0,84,0.00,,,0.03,Wunderground v.1.15,2013-10-20 13:46:00,
2013-10-20 09:51:00,83.5,77.4,29.96,SSW,196,0.0,4.0,82,0.00,,,0.03,Wunderground v.1.15,2013-10-20 13:51:00,
2013-10-20 09:56:00,83.7,77.6,29.96,SW,236,4.0,4.0,82,0.00,,,0.03,Wunderground v.1.15,2013-10-20 13:56:00,
2013-10-20 10:01:00,83.6,77.1,29.96,WSW,248,0.0,0.0,81,0.00,,,0.03,Wunderground v.1.15,2013-10-20 14:01:00,
2013-10-20 10:06:00,83.4,77.3,29.96,West,265,3.0,3.0,82,0.00,,,0.03,Wunderground v.1.15,2013-10-20 14:06:00,
2013-10-20 10:11:00,83.2,77.1,29.96,SW,221,2.0,2.0,82,0.00,,,0.03,Wunderground v.1.15,2013-10-20 14:11:00,
2013-10-20 10:16:00,83.3,76.9,29.96,SSW,210,0.0,2.0,81,0.00,,,0.03,Wunderground v.1.15,2013-10-20 14:16:00,
2013-10-20 10:22:00,83.5,76.7,29.96,ESE,115,1.0,1.0,80,0.00,,,0.03,Wunderground v.1.15,2013-10-20 14:22:00,
2013-10-20 10:27:00,83.9,76.3,29.96,South,188,1.0,5.0,78,0.00,,,0.03,Wunderground v.1.15,2013-10-20 14:27:00,
2013-10-20 10:32:00,84.5,76.9,29.96,SSE,150,0.0,2.0,78,0.00,,,0.03,Wunderground v.1.15,2013-10-20 14:32:00,
2013-10-20 10:37:00,84.9,76.9,29.96,West,269,5.0,5.0,77,0.00,,,0.03,Wunderground v.1.15,2013-10-20 14:37:00,
2013-10-20 10:42:00,84.4,76.4,29.96,WSW,245,0.0,3.0,77,0.00,,,0.03,Wunderground v.1.15,2013-10-20 14:42:00,
2013-10-20 10:47:00,84.4,76.4,29.96,SSE,159,0.0,3.0,77,0.00,,,0.03,Wunderground v.1.15,2013-10-20 14:47:00,
2013-10-20 10:52:00,84.8,76.8,29.96,SSW,205,0.0,2.0,77,0.00,,,0.03,Wunderground v.1.15,2013-10-20 14:52:00,
2013-10-20 10:57:00,85.6,77.2,29.97,SE,129,0.0,2.0,76,0.00,,,0.03,Wunderground v.1.15,2013-10-20 14:57:00,
2013-10-20 11:02:00,85.7,74.8,29.96,SW,218,0.0,3.0,70,0.00,,,0.03,Wunderground v.1.15,2013-10-20 15:02:00,
2013-10-20 11:07:00,85.9,74.5,29.96,WSW,256,2.0,8.0,69,0.00,,,0.03,Wunderground v.1.15,2013-10-20 15:07:00,
2013-10-20 11:12:00,85.9,74.5,29.97,WSW,249,4.0,4.0,69,0.00,,,0.03,Wunderground v.1.15,2013-10-20 15:12:00,
2013-10-20 11:18:00,85.6,73.4,29.97,WSW,250,1.0,6.0,67,0.00,,,0.03,Wunderground v.1.15,2013-10-20 15:18:00,
2013-10-20 11:23:00,85.4,74.5,29.97,West,273,3.0,4.0,70,0.00,,,0.03,Wunderground v.1.15,2013-10-20 15:23:00,
2013-10-20 11:28:00,85.4,74.9,29.97,SSW,211,0.0,4.0,71,0.00,,,0.03,Wunderground v.1.15,2013-10-20 15:28:00,
2013-10-20 11:33:00,86.1,74.3,29.96,West,265,0.0,1.0,68,0.00,,,0.03,Wunderground v.1.15,2013-10-20 15:33:00,
2013-10-20 11:37:00,86.9,74.6,29.96,West,263,2.0,2.0,67,0.00,,,0.03,Wunderground v.1.15,2013-10-20 15:37:00,
2013-10-20 11:43:00,86.6,73.4,29.96,West,270,1.0,6.0,65,0.00,,,0.03,Wunderground v.1.15,2013-10-20 15:43:00,
2013-10-20 11:48:00,86.3,73.6,29.96,WNW,285,1.0,7.0,66,0.00,,,0.03,Wunderground v.1.15,2013-10-20 15:48:00,
2013-10-20 11:53:00,86.1,73.4,29.96,West,263,4.0,7.0,66,0.00,,,0.03,Wunderground v.1.15,2013-10-20 15:53:00,
2013-10-20 11:58:00,86.3,73.6,29.96,West,274,0.0,7.0,66,0.00,,,0.03,Wunderground v.1.15,2013-10-20 15:58:00,
2013-10-20 12:03:00,86.6,74.3,29.96,WSW,252,3.0,6.0,67,0.00,,,0.03,Wunderground v.1.15,2013-10-20 16:03:00,
2013-10-20 12:07:00,86.6,73.9,29.96,SW,233,4.0,8.0,66,0.00,,,0.03,Wunderground v.1.15,2013-10-20 16:07:00,
2013-10-20 12:13:00,86.6,73.4,29.96,WSW,255,3.0,3.0,65,0.00,,,0.03,Wunderground v.1.15,2013-10-20 16:13:00,
2013-10-20 12:18:00,86.6,73.4,29.96,West,264,3.0,7.0,65,0.00,,,0.03,Wunderground v.1.15,2013-10-20 16:18:00,
2013-10-20 12:23:00,86.5,73.3,29.96,West,269,0.0,5.0,65,0.00,,,0.03,Wunderground v.1.15,2013-10-20 16:23:00,
2013-10-20 12:28:00,86.5,72.9,29.96,WSW,248,3.0,5.0,64,0.00,,,0.03,Wunderground v.1.15,2013-10-20 16:28:00,
2013-10-20 12:33:00,86.7,73.5,29.96,WSW,257,2.0,4.0,65,0.00,,,0.03,Wunderground v.1.15,2013-10-20 16:33:00,
2013-10-20 12:36:00,86.7,73.5,29.95,West,276,0.0,4.0,65,0.00,,,0.03,Wunderground v.1.15,2013-10-20 16:36:00,
2013-10-20 12:41:00,86.8,74.1,29.95,WNW,285,0.0,4.0,66,0.00,,,0.03,Wunderground v.1.15,2013-10-20 16:41:00,
2013-10-20 12:46:00,86.8,73.6,29.95,WSW,251,5.0,5.0,65,0.00,,,0.03,Wunderground v.1.15,2013-10-20 16:46:00,
2013-10-20 12:51:00,87.1,73.9,29.95,WSW,255,2.0,4.0,65,0.00,,,0.03,Wunderground v.1.15,2013-10-20 16:51:00,
2013-10-20 12:56:00,87.6,73.4,29.95,WSW,252,0.0,4.0,63,0.00,,,0.03,Wunderground v.1.15,2013-10-20 16:56:00,
2013-10-20 13:01:00,88.0,73.3,29.95,West,264,4.0,6.0,62,0.00,,,0.03,Wunderground v.1.15,2013-10-20 17:01:00,
2013-10-20 13:06:00,88.1,73.4,29.94,West,267,3.0,6.0,62,0.00,,,0.03,Wunderground v.1.15,2013-10-20 17:06:00,
2013-10-20 13:11:00,88.4,72.7,29.94,West,273,6.0,7.0,60,0.00,,,0.03,Wunderground v.1.15,2013-10-20 17:11:00,
2013-10-20 13:16:00,88.5,73.3,29.94,West,280,1.0,7.0,61,0.00,,,0.03,Wunderground v.1.15,2013-10-20 17:16:00,
2013-10-20 13:21:00,88.7,71.5,29.94,SW,230,2.0,6.0,57,0.00,,,0.03,Wunderground v.1.15,2013-10-20 17:21:00,
2013-10-20 13:26:00,89.0,72.3,29.94,WNW,293,5.0,6.0,58,0.00,,,0.03,Wunderground v.1.15,2013-10-20 17:26:00,
2013-10-20 13:31:00,88.9,71.7,29.94,WSW,242,0.0,2.0,57,0.00,,,0.03,Wunderground v.1.15,2013-10-20 17:31:00,
2013-10-20 13:36:00,89.2,72.5,29.93,West,264,2.0,6.0,58,0.00,,,0.03,Wunderground v.1.15,2013-10-20 17:36:00,
2013-10-20 13:41:00,89.0,72.8,29.93,West,275,5.0,7.0,59,0.00,,,0.03,Wunderground v.1.15,2013-10-20 17:41:00,
2013-10-20 13:46:00,88.8,72.6,29.93,SW,224,2.0,7.0,59,0.00,,,0.03,Wunderground v.1.15,2013-10-20 17:46:00,
2013-10-20 13:51:00,89.1,73.4,29.93,WNW,296,3.0,5.0,60,0.00,,,0.03,Wunderground v.1.15,2013-10-20 17:51:00,
2013-10-20 13:56:00,89.7,73.5,29.92,NW,311,0.0,6.0,59,0.00,,,0.03,Wunderground v.1.15,2013-10-20 17:56:00,
2013-10-20 14:01:00,89.7,73.5,29.92,NW,309,1.0,3.0,59,0.00,,,0.03,Wunderground v.1.15,2013-10-20 18:01:00,
2013-10-20 14:06:00,89.3,72.6,29.92,WNW,283,3.0,8.0,58,0.00,,,0.03,Wunderground v.1.15,2013-10-20 18:06:00,
2013-10-20 14:11:00,89.1,72.4,29.92,WSW,239,3.0,4.0,58,0.00,,,0.03,Wunderground v.1.15,2013-10-20 18:11:00,
2013-10-20 14:16:00,89.3,72.6,29.92,West,276,1.0,4.0,58,0.00,,,0.03,Wunderground v.1.15,2013-10-20 18:16:00,
2013-10-20 14:21:00,89.5,73.8,29.91,WSW,256,6.0,6.0,60,0.00,,,0.03,Wunderground v.1.15,2013-10-20 18:21:00,
2013-10-20 14:26:00,89.4,73.2,29.91,WSW,256,3.0,6.0,59,0.00,,,0.03,Wunderground v.1.15,2013-10-20 18:26:00,
2013-10-20 14:31:00,89.6,73.4,29.91,WNW,285,2.0,3.0,59,0.00,,,0.03,Wunderground v.1.15,2013-10-20 18:31:00,
2013-10-20 14:36:00,90.5,74.7,29.91,WNW,302,7.0,8.0,60,0.00,,,0.03,Wunderground v.1.15,2013-10-20 18:36:00,
2013-10-20 14:41:00,91.3,79.3,29.91,WNW,282,6.0,7.0,68,0.00,,,0.03,Wunderground v.1.15,2013-10-20 18:41:00,
2013-10-20 14:46:00,91.6,77.2,29.91,ENE,77,4.0,8.0,63,0.00,,,0.03,Wunderground v.1.15,2013-10-20 18:46:00,
2013-10-20 14:51:00,91.5,78.5,29.90,ENE,60,2.0,8.0,66,0.00,,,0.03,Wunderground v.1.15,2013-10-20 18:51:00,
2013-10-20 14:56:00,90.7,78.2,29.90,NNE,32,3.0,8.0,67,0.00,,,0.03,Wunderground v.1.15,2013-10-20 18:56:00,
2013-10-20 15:02:00,89.9,77.9,29.90,SE,141,4.0,9.0,68,0.00,,,0.03,Wunderground v.1.15,2013-10-20 19:02:00,
2013-10-20 15:07:00,89.3,77.8,29.90,ESE,120,4.0,9.0,69,0.00,,,0.03,Wunderground v.1.15,2013-10-20 19:07:00,
2013-10-20 15:12:00,88.6,77.1,29.90,ENE,68,4.0,8.0,69,0.00,,,0.03,Wunderground v.1.15,2013-10-20 19:12:00,
2013-10-20 15:17:00,87.9,77.7,29.90,East,90,6.0,10.0,72,0.00,,,0.03,Wunderground v.1.15,2013-10-20 19:17:00,
2013-10-20 15:22:00,87.7,78.0,29.90,East,97,0.0,5.0,73,0.00,,,0.03,Wunderground v.1.15,2013-10-20 19:22:00,
2013-10-20 15:27:00,87.7,78.0,29.90,East,88,4.0,6.0,73,0.00,,,0.03,Wunderground v.1.15,2013-10-20 19:27:00,
2013-10-20 15:32:00,87.4,77.7,29.90,ENE,78,4.0,6.0,73,0.00,,,0.03,Wunderground v.1.15,2013-10-20 19:32:00,
2013-10-20 15:37:00,87.1,77.8,29.90,East,93,0.0,6.0,74,0.00,,,0.03,Wunderground v.1.15,2013-10-20 19:37:00,
2013-10-20 15:42:00,87.1,77.8,29.90,East,91,2.0,5.0,74,0.00,,,0.03,Wunderground v.1.15,2013-10-20 19:42:00,
2013-10-20 15:47:00,87.1,77.4,29.90,SE,144,0.0,5.0,73,0.00,,,0.03,Wunderground v.1.15,2013-10-20 19:47:00,
2013-10-20 15:52:00,87.2,77.9,29.90,NE,45,2.0,2.0,74,0.00,,,0.03,Wunderground v.1.15,2013-10-20 19:52:00,
2013-10-20 15:57:00,87.2,77.1,29.90,East,101,2.0,3.0,72,0.00,,,0.03,Wunderground v.1.15,2013-10-20 19:57:00,
2013-10-20 16:02:00,87.0,76.9,29.90,ENE,75,4.0,6.0,72,0.00,,,0.03,Wunderground v.1.15,2013-10-20 20:02:00,
2013-10-20 16:07:00,86.9,76.8,29.90,ENE,77,0.0,6.0,72,0.00,,,0.03,Wunderground v.1.15,2013-10-20 20:07:00,
2013-10-20 16:12:00,86.7,76.6,29.90,East,91,1.0,7.0,72,0.00,,,0.03,Wunderground v.1.15,2013-10-20 20:12:00,
2013-10-20 16:17:00,86.5,76.4,29.90,SE,124,2.0,7.0,72,0.00,,,0.03,Wunderground v.1.15,2013-10-20 20:17:00,
2013-10-20 16:22:00,86.4,76.7,29.90,SSE,162,2.0,2.0,73,0.00,,,0.03,Wunderground v.1.15,2013-10-20 20:22:00,
2013-10-20 16:27:00,86.1,76.8,29.90,ESE,108,1.0,5.0,74,0.00,,,0.03,Wunderground v.1.15,2013-10-20 20:27:00,
2013-10-20 16:32:00,85.6,77.6,29.90,South,190,1.0,4.0,77,0.00,,,0.03,Wunderground v.1.15,2013-10-20 20:32:00,
2013-10-20 16:37:00,84.7,77.8,29.91,SSE,153,1.0,5.0,80,0.00,,,0.03,Wunderground v.1.15,2013-10-20 20:37:00,
2013-10-20 16:42:00,83.4,77.0,29.91,SE,128,1.0,7.0,81,0.00,,,0.04,Wunderground v.1.15,2013-10-20 20:42:00,
2013-10-20 16:48:00,82.2,77.2,29.91,ESE,118,0.0,7.0,85,3.60,,,0.11,Wunderground v.1.15,2013-10-20 20:48:00,
2013-10-20 16:53:00,81.3,77.1,29.91,East,84,1.0,4.0,87,1.63,,,0.28,Wunderground v.1.15,2013-10-20 20:53:00,
2013-10-20 16:58:00,80.4,76.5,29.91,East,101,1.0,3.0,88,0.98,,,0.36,Wunderground v.1.15,2013-10-20 20:58:00,
2013-10-20 17:03:00,79.8,76.6,29.92,SSE,162,0.0,1.0,90,3.10,,,0.43,Wunderground v.1.15,2013-10-20 21:03:00,
2013-10-20 17:08:00,79.4,76.2,29.92,SE,146,0.0,2.0,90,2.61,,,0.68,Wunderground v.1.15,2013-10-20 21:08:00,
2013-10-20 17:13:00,79.0,76.1,29.92,ESE,113,1.0,6.0,91,1.48,,,0.83,Wunderground v.1.15,2013-10-20 21:13:00,
2013-10-20 17:18:00,78.7,75.8,29.92,ESE,113,1.0,6.0,91,1.22,,,0.95,Wunderground v.1.15,2013-10-20 21:18:00,
2013-10-20 17:23:00,78.6,76.1,29.92,SE,132,2.0,10.0,92,0.18,,,0.98,Wunderground v.1.15,2013-10-20 21:23:00,
2013-10-20 17:28:00,78.9,76.0,29.92,NE,51,0.0,10.0,91,0.09,,,0.99,Wunderground v.1.15,2013-10-20 21:28:00,
2013-10-20 17:33:00,79.2,76.3,29.92,SE,134,0.0,3.0,91,0.08,,,0.99,Wunderground v.1.15,2013-10-20 21:33:00,
2013-10-20 17:38:00,79.5,76.3,29.92,South,181,0.0,3.0,90,0.05,,,0.99,Wunderground v.1.15,2013-10-20 21:38:00,
2013-10-20 17:43:00,79.7,76.5,29.92,SE,144,0.0,0.0,90,0.00,,,0.99,Wunderground v.1.15,2013-10-20 21:43:00,
2013-10-20 17:49:00,79.8,76.6,29.93,SSE,148,0.0,1.0,90,0.00,,,0.99,Wunderground v.1.15,2013-10-20 21:49:00,
2013-10-20 17:54:00,79.9,76.7,29.93,SE,126,0.0,3.0,90,0.00,,,0.99,Wunderground v.1.15,2013-10-20 21:54:00,
2013-10-20 17:59:00,80.0,76.8,29.92,East,94,0.0,4.0,90,0.00,,,0.99,Wunderground v.1.15,2013-10-20 21:59:00,
2013-10-20 18:04:00,80.1,77.2,29.92,East,89,0.0,1.0,91,0.00,,,0.99,Wunderground v.1.15,2013-10-20 22:04:00,
2013-10-20 18:09:00,80.0,77.1,29.92,East,85,1.0,4.0,91,0.00,,,0.99,Wunderground v.1.15,2013-10-20 22:09:00,
2013-10-20 18:14:00,80.1,77.2,29.93,ESE,119,0.0,3.0,91,0.00,,,0.99,Wunderground v.1.15,2013-10-20 22:14:00,
2013-10-20 18:19:00,79.9,77.0,29.93,East,88,2.0,4.0,91,0.00,,,0.99,Wunderground v.1.15,2013-10-20 22:19:00,
2013-10-20 18:24:00,79.7,76.8,29.93,East,84,0.0,4.0,91,0.00,,,0.99,Wunderground v.1.15,2013-10-20 22:24:00,
2013-10-20 18:29:00,79.5,76.6,29.93,ESE,108,0.0,4.0,91,0.00,,,0.99,Wunderground v.1.15,2013-10-20 22:29:00,
2013-10-20 18:34:00,79.5,76.6,29.93,East,96,0.0,2.0,91,0.00,,,0.99,Wunderground v.1.15,2013-10-20 22:34:00,
2013-10-20 18:39:00,79.4,76.5,29.93,East,84,0.0,2.0,91,0.00,,,0.99,Wunderground v.1.15,2013-10-20 22:39:00,
2013-10-20 18:44:00,79.3,76.4,29.94,East,101,0.0,3.0,91,0.00,,,0.99,Wunderground v.1.15,2013-10-20 22:44:00,
2013-10-20 18:49:00,79.2,76.7,29.93,ENE,71,0.0,3.0,92,0.00,,,0.99,Wunderground v.1.15,2013-10-20 22:49:00,
2013-10-20 18:54:00,79.2,76.7,29.93,ESE,115,1.0,3.0,92,0.00,,,0.99,Wunderground v.1.15,2013-10-20 22:54:00,
2013-10-20 18:59:00,79.2,76.7,29.93,SE,146,0.0,3.0,92,0.00,,,0.99,Wunderground v.1.15,2013-10-20 22:59:00,
2013-10-20 19:04:00,79.1,76.6,29.93,ESE,112,0.0,3.0,92,0.00,,,0.99,Wunderground v.1.15,2013-10-20 23:04:00,
2013-10-20 19:09:00,79.0,76.5,29.94,East,96,1.0,3.0,92,0.00,,,0.99,Wunderground v.1.15,2013-10-20 23:09:00,
2013-10-20 19:14:00,79.0,76.5,29.94,East,88,0.0,4.0,92,0.00,,,0.99,Wunderground v.1.15,2013-10-20 23:14:00,
2013-10-20 19:19:00,78.9,76.7,29.94,ESE,117,2.0,4.0,93,0.00,,,0.99,Wunderground v.1.15,2013-10-20 23:19:00,
2013-10-20 19:24:00,78.9,76.7,29.94,ESE,107,1.0,5.0,93,0.00,,,0.99,Wunderground v.1.15,2013-10-20 23:24:00,
2013-10-20 19:29:00,78.7,76.2,29.94,SE,143,1.0,5.0,92,0.00,,,0.99,Wunderground v.1.15,2013-10-20 23:29:00,
2013-10-20 19:34:00,78.5,76.0,29.95,SSE,148,0.0,2.0,92,0.00,,,0.99,Wunderground v.1.15,2013-10-20 23:34:00,
2013-10-20 19:39:00,78.3,75.5,29.94,ESE,108,0.0,2.0,91,0.00,,,0.99,Wunderground v.1.15,2013-10-20 23:39:00,
2013-10-20 19:44:00,78.3,75.5,29.94,ESE,118,3.0,3.0,91,0.00,,,0.99,Wunderground v.1.15,2013-10-20 23:44:00,
2013-10-20 19:49:00,78.4,75.6,29.95,ESE,112,0.0,4.0,91,0.00,,,0.99,Wunderground v.1.15,2013-10-20 23:49:00,
2013-10-20 19:54:00,78.4,75.2,29.95,East,98,0.0,3.0,90,0.00,,,0.99,Wunderground v.1.15,2013-10-20 23:54:00,
2013-10-20 19:59:00,78.4,75.2,29.95,SE,127,0.0,3.0,90,0.00,,,0.99,Wunderground v.1.15,2013-10-20 23:59:00,
2013-10-20 20:04:00,78.4,75.6,29.95,SE,146,0.0,2.0,91,0.00,,,0.99,Wunderground v.1.15,2013-10-21 00:04:00,
2013-10-20 20:09:00,78.4,75.6,29.95,SSE,159,2.0,2.0,91,0.00,,,0.99,Wunderground v.1.15,2013-10-21 00:09:00,
2013-10-20 20:14:00,78.4,75.6,29.95,NNE,30,1.0,3.0,91,0.00,,,0.99,Wunderground v.1.15,2013-10-21 00:14:00,
2013-10-20 20:19:00,78.4,75.2,29.95,SE,141,0.0,4.0,90,0.00,,,0.99,Wunderground v.1.15,2013-10-21 00:19:00,
2013-10-20 20:24:00,78.4,75.2,29.95,SE,135,0.0,3.0,90,0.00,,,0.99,Wunderground v.1.15,2013-10-21 00:24:00,
2013-10-20 20:29:00,78.3,75.1,29.95,ESE,115,0.0,3.0,90,0.00,,,0.99,Wunderground v.1.15,2013-10-21 00:29:00,
2013-10-20 20:34:00,78.3,75.1,29.95,ESE,103,0.0,3.0,90,0.00,,,0.99,Wunderground v.1.15,2013-10-21 00:34:00,
2013-10-20 20:39:00,78.3,75.1,29.96,ESE,106,1.0,3.0,90,0.00,,,0.99,Wunderground v.1.15,2013-10-21 00:39:00,
2013-10-20 20:44:00,78.3,75.1,29.96,East,87,0.0,1.0,90,0.00,,,0.99,Wunderground v.1.15,2013-10-21 00:44:00,
2013-10-20 20:49:00,78.3,75.1,29.96,East,87,0.0,2.0,90,0.00,,,0.99,Wunderground v.1.15,2013-10-21 00:49:00,
2013-10-20 20:54:00,78.3,75.1,29.96,East,101,0.0,0.0,90,0.00,,,0.99,Wunderground v.1.15,2013-10-21 00:54:00,
2013-10-20 20:59:00,78.2,75.0,29.96,East,96,0.0,1.0,90,0.00,,,0.99,Wunderground v.1.15,2013-10-21 00:59:00,
2013-10-20 21:04:00,78.2,75.4,29.96,East,84,0.0,1.0,91,0.00,,,0.99,Wunderground v.1.15,2013-10-21 01:04:00,
2013-10-20 21:09:00,78.2,75.0,29.97,ESE,110,0.0,2.0,90,0.00,,,0.99,Wunderground v.1.15,2013-10-21 01:09:00,
2013-10-20 21:14:00,78.2,75.0,29.96,East,83,2.0,3.0,90,0.00,,,0.99,Wunderground v.1.15,2013-10-21 01:14:00,
2013-10-20 21:19:00,78.3,75.1,29.97,ESE,108,0.0,3.0,90,0.00,,,0.99,Wunderground v.1.15,2013-10-21 01:19:00,
2013-10-20 21:24:00,78.3,75.1,29.97,SE,132,0.0,2.0,90,0.00,,,0.99,Wunderground v.1.15,2013-10-21 01:24:00,
2013-10-20 21:29:00,78.3,75.1,29.97,SE,129,0.0,2.0,90,0.00,,,0.99,Wunderground v.1.15,2013-10-21 01:29:00,
2013-10-20 21:34:00,78.4,75.2,29.97,East,92,1.0,1.0,90,0.00,,,0.99,Wunderground v.1.15,2013-10-21 01:34:00,
2013-10-20 21:39:00,78.4,75.2,29.97,East,84,0.0,1.0,90,0.00,,,0.99,Wunderground v.1.15,2013-10-21 01:39:00,
2013-10-20 21:44:00,78.5,75.3,29.97,East,85,0.0,0.0,90,0.00,,,0.99,Wunderground v.1.15,2013-10-21 01:44:00,
2013-10-20 21:49:00,78.5,75.3,29.97,NNE,17,0.0,1.0,90,0.00,,,0.99,Wunderground v.1.15,2013-10-21 01:49:00,
2013-10-20 21:54:00,78.5,75.3,29.97,NNE,20,0.0,1.0,90,0.00,,,0.99,Wunderground v.1.15,2013-10-21 01:54:00,
2013-10-20 21:59:00,78.5,75.7,29.97,NE,44,0.0,1.0,91,0.00,,,0.99,Wunderground v.1.15,2013-10-21 01:59:00,
2013-10-20 22:04:00,78.5,75.3,29.97,East,79,1.0,1.0,90,0.00,,,0.99,Wunderground v.1.15,2013-10-21 02:04:00,
2013-10-20 22:09:00,78.6,75.4,29.97,East,97,0.0,2.0,90,0.00,,,0.99,Wunderground v.1.15,2013-10-21 02:09:00,
2013-10-20 22:14:00,78.7,75.5,29.98,East,98,0.0,0.0,90,0.00,,,0.99,Wunderground v.1.15,2013-10-21 02:14:00,
2013-10-20 22:19:00,78.7,75.5,29.98,East,96,0.0,1.0,90,0.00,,,0.99,Wunderground v.1.15,2013-10-21 02:19:00,
2013-10-20 22:24:00,78.7,75.5,29.98,East,94,0.0,0.0,90,0.00,,,0.99,Wunderground v.1.15,2013-10-21 02:24:00,
2013-10-20 22:29:00,78.7,75.8,29.98,ESE,114,0.0,1.0,91,0.00,,,0.99,Wunderground v.1.15,2013-10-21 02:29:00,
2013-10-20 22:34:00,78.8,75.9,29.98,ESE,104,0.0,1.0,91,0.00,,,0.99,Wunderground v.1.15,2013-10-21 02:34:00,
2013-10-20 22:39:00,78.8,75.9,29.98,East,100,0.0,1.0,91,0.00,,,0.99,Wunderground v.1.15,2013-10-21 02:39:00,
2013-10-20 22:44:00,78.9,76.0,29.98,ESE,117,0.0,1.0,91,0.00,,,0.99,Wunderground v.1.15,2013-10-21 02:44:00,
2013-10-20 22:49:00,78.9,76.0,29.98,East,89,0.0,1.0,91,0.00,,,0.99,Wunderground v.1.15,2013-10-21 02:49:00,
2013-10-20 22:54:00,79.0,76.1,29.98,East,96,0.0,1.0,91,0.00,,,0.99,Wunderground v.1.15,2013-10-21 02:54:00,
2013-10-20 22:59:00,79.0,76.1,29.99,East,94,0.0,1.0,91,0.00,,,0.99,Wunderground v.1.15,2013-10-21 02:59:00,
2013-10-20 23:04:00,79.1,76.2,29.98,East,100,0.0,1.0,91,0.00,,,0.99,Wunderground v.1.15,2013-10-21 03:04:00,
2013-10-20 23:09:00,79.1,76.2,29.99,East,88,2.0,2.0,91,0.00,,,0.99,Wunderground v.1.15,2013-10-21 03:09:00,
2013-10-20 23:14:00,79.1,76.2,29.99,East,96,0.0,1.0,91,0.00,,,0.99,Wunderground v.1.15,2013-10-21 03:14:00,
2013-10-20 23:19:00,79.2,76.3,29.99,ESE,110,0.0,2.0,91,0.00,,,0.99,Wunderground v.1.15,2013-10-21 03:19:00,
2013-10-20 23:24:00,79.3,76.4,29.99,East,91,1.0,2.0,91,0.00,,,0.99,Wunderground v.1.15,2013-10-21 03:24:00,
2013-10-20 23:29:00,79.3,76.1,29.99,East,85,0.0,3.0,90,0.00,,,0.99,Wunderground v.1.15,2013-10-21 03:29:00,
2013-10-20 23:34:00,79.2,76.0,29.99,East,84,1.0,4.0,90,0.00,,,0.99,Wunderground v.1.15,2013-10-21 03:34:00,
2013-10-20 23:39:00,79.1,75.6,29.98,ENE,74,0.0,4.0,89,0.00,,,0.99,Wunderground v.1.15,2013-10-21 03:39:00,
2013-10-20 23:44:00,79.1,75.6,29.98,East,82,0.0,0.0,89,0.00,,,0.99,Wunderground v.1.15,2013-10-21 03:44:00,
2013-10-20 23:49:00,79.1,75.6,29.98,NE,39,0.0,1.0,89,0.00,,,0.99,Wunderground v.1.15,2013-10-21 03:49:00,
2013-10-20 23:54:00,79.0,75.5,29.98,NE,39,0.0,1.0,89,0.00,,,0.99,Wunderground v.1.15,2013-10-21 03:54:00,
2013-10-20 23:59:00,78.9,75.4,29.98,ENE,63,0.0,2.0,89,0.00,,,0.00,Wunderground v.1.15,2013-10-21 03:59:00,